{"data":{"norad_id":66915,"intl_designator":"2025-285A","name":"HULIANWANG DIGUI-105","alt_names":[],"object_type":"PAYLOAD","status":"ACTIVE","operator":null,"country":"PRC","launch_date":"2025-12-06","launch_site_code":"WSC","launch_vehicle":null,"mission":null,"orbit_class":"UNKNOWN","rcs_meters":null,"size_class":null,"mass_kg":null,"dimensions":null,"purposes":[],"wikipedia_slug":null,"has_3d_model":false,"image_url":null,"decayed_at":null,"tle_current":{"epoch":"2026-09-20T10:17:12.387840Z","epoch_age_seconds":118178,"freshness":"FRESH","line1":"1 66915U 25285A   26263.42861560 -.00000112  00000+0  26749-4 0  9996","line2":"2 66915  50.0045 164.6442 0000106 233.0278 127.0585 13.29326018 38725","mean_motion":13.29326018,"eccentricity":1.06e-5,"inclination_deg":50.0045,"raan_deg":164.6442,"arg_perigee_deg":233.0278,"mean_anomaly_deg":127.0585,"bstar":2.6749e-5,"rev_number":3872,"period_min":108.32557104137,"perigee_km":1149.2267130014,"apogee_km":1149.3862948037,"semimajor_km":7527.4435039026,"source":"CELESTRAK","updated_at":"2026-09-21T09:00:16.303543Z"}}}